Content
SEND FEEDBACK

Daily
Averages
Monthly
Summary
United States of America

BERKELEY, MISSOURI


Home > North America > United States > Missouri
Elevation: 564 feet     Latitude: 38 45N     Longitude: 090 22W

WEATHER
 
SELECT A DAY
Number of Records: 206,743;   Date Range: 1/1/95 - 10/30/14
 
SHARE

PRINT THIS DATA

[ ← Previous Day ]
WEATHER ALMANAC - JANUARY 12, 2013
[ Next Day → ]
[ °C ]   °F
Weather ElementAverageHighLow
Temperature43.7 °F57.9 °F (1:51 am)32 °F (10:37 pm)
Dewpoint35.4 °F48.2 °F (2:51 am)28 °F (2:51 pm)
Humidity74.1 %88 % (10:51 pm)48 % (2:51 pm)
Barometer29.91 in29.96 in (9:51 am)29.83 in (1:51 am)
Wind Speed12.5 mph20.7 mph (9:25 pm)
Wind Gust29.9 mph (8:51 pm)
Weather ElementAverage
Visibility7.9 mi
Wind DirectionWNW (283.8 °)

Weather ElementTotal
Precipitation0.86 in
Heating Degree Days20.1 (Base 65)
Averaged from 32 records on January 12, 2013
WEATHER CONDITIONS BREAKOUT
WIND DIRECTION BREAKOUT
WEATHER BY HOUR - JANUARY 12, 2013
[ °C ]   °F
Local TimeTemperatureDewpointHumidityBarometerVisibilityWind DirectionWind SpeedGust SpeedPrecipitationEventsConditions
1:51 AM57.9 °F46.9 °F67 %29.83 in10.0 miSSW (200°)15.0 mphMostly Cloudy
2:51 AM57.2 °F48.2 °F72 %29.85 in10.0 miSouth (190°)13.8 mphMostly Cloudy
3:51 AM57.0 °F48.0 °F72 %29.84 in10.0 miSSW (200°)10.4 mphMostly Cloudy
4:51 AM55.9 °F48.0 °F75 %29.85 in10.0 miSouth (190°)6.9 mphScattered Clouds
5:51 AM55.4 °F46.4 °F72 %29.87 in10.0 miSSW (200°)6.9 mphScattered Clouds
6:51 AM52.0 °F46.0 °F80 %29.90 in10.0 miSW (220°)6.9 mphMostly Cloudy
7:51 AM54.0 °F46.9 °F77 %29.92 in10.0 miSW (230°)4.6 mphMostly Cloudy
8:51 AM53.1 °F46.9 °F80 %29.93 in10.0 miCalmMostly Cloudy
9:51 AM55.0 °F39.9 °F57 %29.96 in10.0 miNNW (330°)12.7 mphMostly Cloudy
10:51 AM55.0 °F37.0 °F51 %29.96 in9.0 miNW (310°)10.4 mphMostly Cloudy
11:51 AM55.0 °F36.0 °F49 %29.94 in9.0 miNW (310°)11.5 mphOvercast
12:51 PM52.0 °F36.0 °F54 %29.93 in10.0 miNW (320°)13.8 mphOvercast
1:51 PM48.9 °F37.0 °F64 %29.94 in10.0 miNW (320°)10.4 mphOvercast
2:51 PM46.9 °F28.0 °F48 %29.91 in10.0 miNorth (350°)15.0 mphOvercast
3:35 PM44.6 °F30.2 °F57 %29.92 in10.0 miNorth (360°)12.7 mph0.00 inRainLight Rain
3:51 PM44.1 °F30.9 °F60 %29.91 in10.0 miNorth (360°)13.8 mph0.00 inRainLight Rain
4:51 PM42.1 °F33.1 °F70 %29.89 in10.0 miNorth (360°)10.4 mph0.03 inRainLight Rain
5:51 PM41.0 °F33.1 °F73 %29.86 in10.0 miNorth (10°)9.2 mph0.05 inRainLight Rain
6:51 PM39.0 °F34.0 °F82 %29.89 in9.0 miNW (310°)12.7 mph0.12 inRainLight Rain
7:10 PM37.4 °F33.8 °F87 %29.89 in6.0 miNW (320°)13.8 mph0.02 inRainLight Rain
7:51 PM35.1 °F30.9 °F85 %29.91 in5.0 miNNW (330°)18.4 mph26.5 mph0.14 inRainLight Rain
8:17 PM33.8 °F30.2 °F87 %29.90 in4.0 miNorth (350°)13.8 mph25.3 mph0.09 inRainLight Rain
8:51 PM33.1 °F28.9 °F85 %29.91 in4.0 miNNW (340°)17.3 mph29.9 mph0.22 inRainLight Rain
9:25 PM33.8 °F28.4 °F81 %29.87 in4.0 miNorth (350°)20.7 mph25.3 mph0.06 inRainLight Rain
9:51 PM33.1 °F28.9 °F85 %29.93 in9.0 miNNW (330°)10.4 mph20.7 mph0.06 inRainLight Rain
10:28 PM33.8 °F28.4 °F81 %29.92 in6.0 miNW (320°)15.0 mph0.00 inRainLight Rain
10:37 PM32.0 °F28.4 °F87 %29.94 in4.0 miNW (320°)15.0 mph23.0 mph0.01 inRainLight Rain
10:45 PM32.0 °F28.4 °F87 %29.94 in3.0 miNW (320°)17.3 mph24.2 mph0.01 inRainLight Rain
10:51 PM32.0 °F28.9 °F88 %29.96 in2.0 miNNW (330°)17.3 mph0.02 inRainLight Rain
11:07 PM32.0 °F28.4 °F87 %29.94 in3.0 miNNW (330°)15.0 mph0.01 inRainLight Rain
11:30 PM32.0 °F28.4 °F87 %29.95 in6.0 miNNW (330°)15.0 mph0.01 inOvercast
11:51 PM32.0 °F28.0 °F85 %29.95 in10.0 miNNW (340°)13.8 mph0.01 inOvercast
Hourly data recorded from KSTL, located miles away from Berkeley, Missouri







STORIES FROM OUR PARTNERS